Time,TemperatureF,DewpointF,PressureIn,WindDirection,WindDirectionDegrees,WindSpeedMPH,WindSpeedGustMPH,Humidity,HourlyPrecipIn,Conditions,Clouds,dailyrainin,SoftwareType,DateUTC
2013-05-27 00:01:00,49.0,47.0,29.72,NW,319,0.0,-999.0,94,-99.99,,,-99.99,,2013-05-27 07:01:00,
2013-05-27 00:11:00,49.0,48.0,29.72,NW,319,0.0,-999.0,95,-99.99,,,-99.99,,2013-05-27 07:11:00,
2013-05-27 00:21:00,49.0,48.0,29.72,NW,319,0.0,-999.0,95,-99.99,,,-99.99,,2013-05-27 07:21:00,
2013-05-27 00:31:00,49.0,48.0,29.72,WNW,300,0.0,-999.0,95,-99.99,,,-99.99,,2013-05-27 07:31:00,
2013-05-27 00:41:00,49.0,48.0,29.72,WNW,300,0.0,-999.0,95,-99.99,,,-99.99,,2013-05-27 07:41:00,
2013-05-27 00:52:00,49.0,48.0,29.71,NNW,328,0.0,-999.0,95,-99.99,,,-99.99,,2013-05-27 07:52:00,
2013-05-27 01:02:00,48.0,47.0,29.71,North,350,1.0,-999.0,95,-99.99,,,-99.99,,2013-05-27 08:02:00,
2013-05-27 01:11:00,48.0,47.0,29.71,North,350,1.0,-999.0,95,-99.99,,,-99.99,,2013-05-27 08:11:00,
2013-05-27 01:21:00,48.0,47.0,29.71,North,350,1.0,-999.0,95,-99.99,,,-99.99,,2013-05-27 08:21:00,
2013-05-27 01:32:00,48.0,47.0,29.71,NW,304,0.0,-999.0,95,-99.99,,,-99.99,,2013-05-27 08:32:00,
2013-05-27 01:41:00,48.0,47.0,29.71,NW,304,0.0,-999.0,95,-99.99,,,-99.99,,2013-05-27 08:41:00,
2013-05-27 01:51:00,49.0,48.0,29.70,NNW,333,0.0,-999.0,95,-99.99,,,-99.99,,2013-05-27 08:51:00,
2013-05-27 02:02:00,48.0,47.0,29.70,NNW,344,0.0,-999.0,95,-99.99,,,-99.99,,2013-05-27 09:02:00,
2013-05-27 02:11:00,48.0,47.0,29.70,WNW,296,0.0,-999.0,95,-99.99,,,-99.99,,2013-05-27 09:11:00,
2013-05-27 02:21:00,48.0,47.0,29.70,WNW,296,0.0,-999.0,95,-99.99,,,-99.99,,2013-05-27 09:21:00,
2013-05-27 02:33:00,48.0,47.0,29.69,NW,304,0.0,-999.0,95,-99.99,,,-99.99,,2013-05-27 09:33:00,
2013-05-27 02:42:00,48.0,47.0,29.69,NW,304,0.0,-999.0,95,-99.99,,,-99.99,,2013-05-27 09:42:00,
2013-05-27 02:52:00,48.0,47.0,29.68,NW,312,0.0,-999.0,96,-99.99,,,-99.99,,2013-05-27 09:52:00,
2013-05-27 03:02:00,48.0,47.0,29.68,NW,312,0.0,-999.0,96,-99.99,,,-99.99,,2013-05-27 10:02:00,
2013-05-27 03:12:00,48.0,47.0,29.68,NW,312,0.0,-999.0,96,-99.99,,,-99.99,,2013-05-27 10:12:00,
2013-05-27 03:22:00,48.0,47.0,29.68,NW,326,0.0,-999.0,96,-99.99,,,-99.99,,2013-05-27 10:22:00,
2013-05-27 03:32:00,48.0,47.0,29.68,NW,326,0.0,-999.0,96,-99.99,,,-99.99,,2013-05-27 10:32:00,
2013-05-27 03:42:00,48.0,47.0,29.68,NW,326,0.0,-999.0,96,-99.99,,,-99.99,,2013-05-27 10:42:00,
2013-05-27 03:52:00,48.0,47.0,29.67,NW,321,0.0,-999.0,95,-99.99,,,-99.99,,2013-05-27 10:52:00,
2013-05-27 04:02:00,48.0,47.0,29.67,NW,321,0.0,-999.0,95,-99.99,,,-99.99,,2013-05-27 11:02:00,
2013-05-27 04:11:00,48.0,47.0,29.67,NW,321,0.0,-999.0,95,-99.99,,,-99.99,,2013-05-27 11:11:00,
2013-05-27 04:21:00,48.0,47.0,29.66,West,259,0.0,-999.0,96,-99.99,,,-99.99,,2013-05-27 11:21:00,
2013-05-27 04:31:00,48.0,47.0,29.66,West,259,0.0,-999.0,96,-99.99,,,-99.99,,2013-05-27 11:31:00,
2013-05-27 04:42:00,48.0,47.0,29.66,West,259,0.0,-999.0,96,-99.99,,,-99.99,,2013-05-27 11:42:00,
2013-05-27 04:51:00,47.0,46.0,29.66,West,259,0.0,-999.0,96,-99.99,,,-99.99,,2013-05-27 11:51:00,
2013-05-27 05:01:00,47.0,46.0,29.66,West,259,0.0,-999.0,96,-99.99,,,-99.99,,2013-05-27 12:01:00,
2013-05-27 05:11:00,47.0,46.0,29.66,West,259,0.0,-999.0,96,-99.99,,,-99.99,,2013-05-27 12:11:00,
2013-05-27 05:21:00,47.0,46.0,29.66,WSW,257,0.0,-999.0,96,-99.99,,,-99.99,,2013-05-27 12:21:00,
2013-05-27 05:31:00,47.0,46.0,29.65,ESE,105,0.0,-999.0,96,-99.99,,,-99.99,,2013-05-27 12:31:00,
2013-05-27 05:42:00,47.0,46.0,29.65,ESE,105,0.0,-999.0,96,-99.99,,,-99.99,,2013-05-27 12:42:00,
2013-05-27 05:52:00,46.0,45.0,29.65,SSE,164,0.0,-999.0,95,-99.99,,,-99.99,,2013-05-27 12:52:00,
2013-05-27 06:01:00,46.0,45.0,29.65,SE,126,2.0,-999.0,95,-99.99,,,-99.99,,2013-05-27 13:01:00,
2013-05-27 06:11:00,46.0,45.0,29.65,SE,126,2.0,-999.0,95,-99.99,,,-99.99,,2013-05-27 13:11:00,
2013-05-27 06:21:00,46.0,45.0,29.65,NE,41,0.0,-999.0,96,-99.99,,,-99.99,,2013-05-27 13:21:00,
2013-05-27 06:32:00,45.0,44.0,29.65,SSE,157,0.0,-999.0,95,-99.99,,,-99.99,,2013-05-27 13:32:00,
2013-05-27 06:41:00,45.0,44.0,29.65,SSE,157,0.0,-999.0,95,-99.99,,,-99.99,,2013-05-27 13:41:00,
2013-05-27 06:52:00,46.0,45.0,29.65,NNE,26,1.0,-999.0,95,-99.99,,,-99.99,,2013-05-27 13:52:00,
2013-05-27 07:01:00,47.0,45.0,29.65,South,179,0.0,-999.0,94,-99.99,,,-99.99,,2013-05-27 14:01:00,
2013-05-27 07:11:00,47.0,45.0,29.65,South,179,0.0,-999.0,94,-99.99,,,-99.99,,2013-05-27 14:11:00,
2013-05-27 07:21:00,47.0,45.0,29.65,SE,134,0.0,-999.0,94,-99.99,,,-99.99,,2013-05-27 14:21:00,
2013-05-27 07:31:00,49.0,47.0,29.66,SE,127,0.0,-999.0,94,-99.99,,,-99.99,,2013-05-27 14:31:00,
2013-05-27 07:42:00,49.0,47.0,29.66,SE,127,0.0,-999.0,94,-99.99,,,-99.99,,2013-05-27 14:42:00,
2013-05-27 07:51:00,50.0,48.0,29.66,North,10,0.0,-999.0,92,-99.99,,,-99.99,,2013-05-27 14:51:00,
2013-05-27 08:01:00,50.0,48.0,29.66,West,276,0.0,-999.0,92,-99.99,,,-99.99,,2013-05-27 15:01:00,
2013-05-27 08:11:00,51.0,49.0,29.66,WSW,254,0.0,-999.0,93,-99.99,,,-99.99,,2013-05-27 15:11:00,
2013-05-27 08:21:00,51.0,49.0,29.66,WSW,254,0.0,-999.0,93,-99.99,,,-99.99,,2013-05-27 15:21:00,
2013-05-27 08:33:00,53.0,50.0,29.67,NW,319,0.0,-999.0,91,-99.99,,,-99.99,,2013-05-27 15:33:00,
2013-05-27 08:43:00,53.0,50.0,29.67,NW,319,0.0,-999.0,91,-99.99,,,-99.99,,2013-05-27 15:43:00,
2013-05-27 08:53:00,53.0,49.0,29.67,West,279,0.0,-999.0,87,-99.99,,,-99.99,,2013-05-27 15:53:00,
2013-05-27 09:02:00,53.0,48.0,29.67,NNW,330,1.0,-999.0,84,-99.99,,,-99.99,,2013-05-27 16:02:00,
2013-05-27 09:12:00,53.0,48.0,29.67,NNW,330,1.0,-999.0,84,-99.99,,,-99.99,,2013-05-27 16:12:00,
2013-05-27 09:22:00,54.0,49.0,29.68,WNW,283,0.0,-999.0,84,-99.99,,,-99.99,,2013-05-27 16:22:00,
2013-05-27 09:33:00,54.0,49.0,29.68,WNW,298,1.0,-999.0,83,-99.99,,,-99.99,,2013-05-27 16:33:00,
2013-05-27 09:42:00,54.0,49.0,29.68,WNW,298,1.0,-999.0,83,-99.99,,,-99.99,,2013-05-27 16:42:00,
2013-05-27 09:52:00,55.0,49.0,29.69,WNW,291,3.0,-999.0,80,-99.99,,,-99.99,,2013-05-27 16:52:00,
2013-05-27 10:02:00,54.0,48.0,29.69,North,349,4.0,-999.0,81,-99.99,,,-99.99,,2013-05-27 17:02:00,
2013-05-27 10:11:00,55.0,49.0,29.68,NNW,341,1.0,-999.0,81,-99.99,,,-99.99,,2013-05-27 17:11:00,
2013-05-27 10:21:00,55.0,49.0,29.68,NNW,341,1.0,-999.0,81,-99.99,,,-99.99,,2013-05-27 17:21:00,
2013-05-27 10:31:00,56.0,50.0,29.67,NE,41,0.0,-999.0,80,-99.99,,,-99.99,,2013-05-27 17:31:00,
2013-05-27 10:42:00,56.0,50.0,29.67,NE,41,0.0,-999.0,80,-99.99,,,-99.99,,2013-05-27 17:42:00,
2013-05-27 10:52:00,56.0,50.0,29.67,NNE,24,0.0,-999.0,81,-99.99,,,-99.99,,2013-05-27 17:52:00,
2013-05-27 11:02:00,59.0,51.0,29.67,North,355,1.0,-999.0,76,-99.99,,,-99.99,,2013-05-27 18:02:00,
2013-05-27 11:11:00,59.0,51.0,29.67,North,355,1.0,-999.0,76,-99.99,,,-99.99,,2013-05-27 18:11:00,
2013-05-27 11:21:00,60.0,52.0,29.67,NNW,342,2.0,-999.0,74,-99.99,,,-99.99,,2013-05-27 18:21:00,
2013-05-27 11:32:00,61.0,52.0,29.67,NNE,22,1.0,-999.0,73,-99.99,,,-99.99,,2013-05-27 18:32:00,
2013-05-27 11:41:00,61.0,52.0,29.67,NNE,22,1.0,-999.0,73,-99.99,,,-99.99,,2013-05-27 18:41:00,
2013-05-27 11:52:00,61.0,52.0,29.67,NW,321,2.0,-999.0,71,-99.99,,,-99.99,,2013-05-27 18:52:00,
2013-05-27 12:01:00,61.0,52.0,29.67,NNW,343,2.0,-999.0,73,-99.99,,,-99.99,,2013-05-27 19:01:00,
2013-05-27 12:11:00,61.0,52.0,29.67,NNW,343,2.0,-999.0,73,-99.99,,,-99.99,,2013-05-27 19:11:00,
2013-05-27 12:21:00,61.0,52.0,29.67,NW,315,1.0,-999.0,71,-99.99,,,-99.99,,2013-05-27 19:21:00,
2013-05-27 12:31:00,63.0,52.0,29.67,NW,315,1.0,-999.0,68,-99.99,,,-99.99,,2013-05-27 19:31:00,
2013-05-27 12:41:00,63.0,52.0,29.67,NW,315,1.0,-999.0,68,-99.99,,,-99.99,,2013-05-27 19:41:00,
2013-05-27 12:52:00,64.0,52.0,29.67,NNW,332,1.0,-999.0,66,-99.99,,,-99.99,,2013-05-27 19:52:00,
2013-05-27 13:01:00,64.0,52.0,29.67,NW,322,0.0,-999.0,65,-99.99,,,-99.99,,2013-05-27 20:01:00,
2013-05-27 13:11:00,64.0,52.0,29.67,NW,322,0.0,-999.0,65,-99.99,,,-99.99,,2013-05-27 20:11:00,
2013-05-27 13:22:00,63.0,51.0,29.67,NW,321,2.0,-999.0,66,-99.99,,,-99.99,,2013-05-27 20:22:00,
2013-05-27 13:32:00,62.0,51.0,29.67,NNW,336,4.0,-999.0,68,-99.99,,,-99.99,,2013-05-27 20:32:00,
2013-05-27 13:41:00,61.0,52.0,29.68,NNW,342,4.0,-999.0,71,-99.99,,,-99.99,,2013-05-27 20:41:00,
2013-05-27 13:52:00,61.0,52.0,29.68,NNW,342,4.0,-999.0,71,-99.99,,,-99.99,,2013-05-27 20:52:00,
2013-05-27 14:01:00,60.0,51.0,29.69,WNW,289,2.0,-999.0,72,-99.99,,,-99.99,,2013-05-27 21:01:00,
2013-05-27 14:11:00,59.0,50.0,29.68,WNW,284,1.0,-999.0,72,-99.99,,,-99.99,,2013-05-27 21:11:00,
2013-05-27 14:21:00,59.0,50.0,29.68,WNW,284,1.0,-999.0,72,-99.99,,,-99.99,,2013-05-27 21:21:00,
2013-05-27 14:32:00,59.0,51.0,29.69,WSW,254,0.0,-999.0,74,-99.99,,,-99.99,,2013-05-27 21:32:00,
2013-05-27 14:42:00,59.0,52.0,29.68,NNW,331,0.0,-999.0,77,-99.99,,,-99.99,,2013-05-27 21:42:00,
2013-05-27 14:53:00,59.0,52.0,29.68,NNW,331,0.0,-999.0,77,-99.99,,,-99.99,,2013-05-27 21:53:00,
2013-05-27 15:02:00,58.0,52.0,29.68,NW,306,0.0,-999.0,80,-99.99,,,-99.99,,2013-05-27 22:02:00,
2013-05-27 15:12:00,58.0,52.0,29.67,WNW,296,0.0,-999.0,81,-99.99,,,-99.99,,2013-05-27 22:12:00,
2013-05-27 15:22:00,58.0,52.0,29.67,WNW,296,0.0,-999.0,81,-99.99,,,-99.99,,2013-05-27 22:22:00,
2013-05-27 15:32:00,58.0,52.0,29.67,NW,309,1.0,-999.0,80,-99.99,,,-99.99,,2013-05-27 22:32:00,
2013-05-27 15:42:00,58.0,52.0,29.67,NW,309,1.0,-999.0,80,-99.99,,,-99.99,,2013-05-27 22:42:00,
2013-05-27 15:52:00,59.0,52.0,29.67,NNW,338,2.0,-999.0,77,-99.99,,,-99.99,,2013-05-27 22:52:00,
2013-05-27 16:02:00,59.0,51.0,29.66,NNW,346,3.0,-999.0,75,-99.99,,,-99.99,,2013-05-27 23:02:00,
2013-05-27 16:12:00,59.0,51.0,29.66,NNW,346,3.0,-999.0,75,-99.99,,,-99.99,,2013-05-27 23:12:00,
2013-05-27 16:22:00,59.0,51.0,29.66,NNW,331,3.0,-999.0,75,-99.99,,,-99.99,,2013-05-27 23:22:00,
2013-05-27 16:32:00,60.0,52.0,29.65,WNW,283,2.0,-999.0,74,-99.99,,,-99.99,,2013-05-27 23:32:00,
2013-05-27 16:42:00,60.0,52.0,29.65,WNW,283,2.0,-999.0,74,-99.99,,,-99.99,,2013-05-27 23:42:00,
2013-05-27 16:52:00,60.0,51.0,29.65,NNW,334,3.0,-999.0,73,-99.99,,,-99.99,,2013-05-27 23:52:00,
2013-05-27 17:01:00,59.0,51.0,29.66,NNW,330,3.0,-999.0,75,-99.99,,,-99.99,,2013-05-28 00:01:00,
2013-05-27 17:11:00,59.0,51.0,29.66,NNW,330,3.0,-999.0,75,-99.99,,,-99.99,,2013-05-28 00:11:00,
2013-05-27 17:21:00,59.0,51.0,29.66,North,350,1.0,-999.0,76,-99.99,,,-99.99,,2013-05-28 00:21:00,
2013-05-27 17:31:00,59.0,51.0,29.65,WNW,302,2.0,-999.0,74,-99.99,,,-99.99,,2013-05-28 00:31:00,
2013-05-27 17:41:00,59.0,51.0,29.65,WNW,302,2.0,-999.0,74,-99.99,,,-99.99,,2013-05-28 00:41:00,
2013-05-27 17:52:00,58.0,50.0,29.65,NNW,330,4.0,-999.0,74,-99.99,,,-99.99,,2013-05-28 00:52:00,
2013-05-27 18:01:00,59.0,51.0,29.65,NW,326,4.0,-999.0,76,-99.99,,,-99.99,,2013-05-28 01:01:00,
2013-05-27 18:11:00,59.0,51.0,29.65,NW,326,4.0,-999.0,76,-99.99,,,-99.99,,2013-05-28 01:11:00,
2013-05-27 18:21:00,59.0,51.0,29.65,NNW,346,4.0,-999.0,74,-99.99,,,-99.99,,2013-05-28 01:21:00,
2013-05-27 18:31:00,58.0,50.0,29.65,NW,323,4.0,-999.0,76,-99.99,,,-99.99,,2013-05-28 01:31:00,
2013-05-27 18:41:00,58.0,50.0,29.65,NW,323,4.0,-999.0,76,-99.99,,,-99.99,,2013-05-28 01:41:00,
2013-05-27 18:52:00,58.0,50.0,29.65,NW,318,4.0,-999.0,75,-99.99,,,-99.99,,2013-05-28 01:52:00,
2013-05-27 19:02:00,55.0,49.0,29.65,NW,325,1.0,-999.0,80,-99.99,,,-99.99,,2013-05-28 02:02:00,
2013-05-27 19:11:00,55.0,49.0,29.65,NW,325,1.0,-999.0,80,-99.99,,,-99.99,,2013-05-28 02:11:00,
2013-05-27 19:21:00,54.0,49.0,29.65,WNW,285,0.0,-999.0,83,-99.99,,,-99.99,,2013-05-28 02:21:00,
2013-05-27 19:32:00,53.0,48.0,29.64,WSW,245,1.0,-999.0,84,-99.99,,,-99.99,,2013-05-28 02:32:00,
2013-05-27 19:41:00,53.0,48.0,29.64,WSW,245,1.0,-999.0,84,-99.99,,,-99.99,,2013-05-28 02:41:00,
2013-05-27 19:52:00,53.0,48.0,29.64,WNW,292,0.0,-999.0,84,-99.99,,,-99.99,,2013-05-28 02:52:00,
2013-05-27 20:01:00,53.0,48.0,29.63,West,264,0.0,-999.0,84,-99.99,,,-99.99,,2013-05-28 03:01:00,
2013-05-27 20:11:00,53.0,48.0,29.63,West,264,0.0,-999.0,84,-99.99,,,-99.99,,2013-05-28 03:11:00,
2013-05-27 20:21:00,52.0,48.0,29.64,West,269,0.0,-999.0,85,-99.99,,,-99.99,,2013-05-28 03:21:00,
2013-05-27 20:33:00,52.0,48.0,29.63,WSW,243,0.0,-999.0,86,-99.99,,,-99.99,,2013-05-28 03:33:00,
2013-05-27 20:43:00,52.0,48.0,29.63,WSW,243,0.0,-999.0,86,-99.99,,,-99.99,,2013-05-28 03:43:00,
2013-05-27 20:53:00,52.0,48.0,29.63,SW,227,0.0,-999.0,87,-99.99,,,-99.99,,2013-05-28 03:53:00,
2013-05-27 21:02:00,52.0,48.0,29.63,South,181,0.0,-999.0,87,-99.99,,,-99.99,,2013-05-28 04:02:00,
2013-05-27 21:12:00,52.0,48.0,29.63,South,181,0.0,-999.0,87,-99.99,,,-99.99,,2013-05-28 04:12:00,
2013-05-27 21:22:00,51.0,48.0,29.62,SSW,210,0.0,-999.0,88,-99.99,,,-99.99,,2013-05-28 04:22:00,
2013-05-27 21:33:00,51.0,48.0,29.62,SSE,164,0.0,-999.0,88,-99.99,,,-99.99,,2013-05-28 04:33:00,
2013-05-27 21:42:00,51.0,48.0,29.62,SSE,164,0.0,-999.0,88,-99.99,,,-99.99,,2013-05-28 04:42:00,
2013-05-27 21:52:00,51.0,48.0,29.62,SSE,164,0.0,-999.0,89,-99.99,,,-99.99,,2013-05-28 04:52:00,
2013-05-27 22:02:00,52.0,49.0,29.63,South,187,0.0,-999.0,90,-99.99,,,-99.99,,2013-05-28 05:02:00,
2013-05-27 22:12:00,52.0,49.0,29.63,South,187,0.0,-999.0,90,-99.99,,,-99.99,,2013-05-28 05:12:00,
2013-05-27 22:22:00,52.0,49.0,29.63,West,265,0.0,-999.0,90,-99.99,,,-99.99,,2013-05-28 05:22:00,
2013-05-27 22:32:00,52.0,49.0,29.62,WNW,290,0.0,-999.0,91,-99.99,,,-99.99,,2013-05-28 05:32:00,
2013-05-27 22:42:00,52.0,49.0,29.62,WNW,290,0.0,-999.0,91,-99.99,,,-99.99,,2013-05-28 05:42:00,
2013-05-27 22:52:00,52.0,50.0,29.62,WSW,256,0.0,-999.0,92,-99.99,,,-99.99,,2013-05-28 05:52:00,
2013-05-27 23:02:00,52.0,50.0,29.61,West,268,0.0,-999.0,93,-99.99,,,-99.99,,2013-05-28 06:02:00,
2013-05-27 23:11:00,52.0,50.0,29.61,West,268,0.0,-999.0,93,-99.99,,,-99.99,,2013-05-28 06:11:00,
2013-05-27 23:21:00,52.0,50.0,29.62,West,264,0.0,-999.0,93,-99.99,,,-99.99,,2013-05-28 06:21:00,
2013-05-27 23:31:00,52.0,50.0,29.63,WNW,289,0.0,-999.0,93,-99.99,,,-99.99,,2013-05-28 06:31:00,
2013-05-27 23:41:00,52.0,50.0,29.63,WNW,289,0.0,-999.0,93,-99.99,,,-99.99,,2013-05-28 06:41:00,
2013-05-27 23:52:00,52.0,50.0,29.62,NW,317,0.0,-999.0,94,-99.99,,,-99.99,,2013-05-28 06:52:00,